This demonstration page uses our WeatherBlox Daily Observations layout. Learn more.

Left ArrowRight Arrow

Hourly Observations for August 17, 2016

Temp ( °F °C ) Dew Point ( °F °C ) Humidity (%) Winds ( mph kmh ) Pressure ( in mb ) Visibility ( mi km ) Precip ( " mm )
12:14 am 00:14 Cloudy 70 21 70 21 100 100 Calm 30.15 1021 10 16.0934 N/A
12:35 am 00:35 Cloudy 70 21 70 21 100 100 Calm 30.15 1021 10 16.0934 N/A
12:54 am 00:54 Cloudy 70 21 70 21 100 100 Calm 30.15 1021 10 16.0934 N/A
1:15 am 01:15 Cloudy 70 21 70 21 100 100 Calm 30.18 1022 7 11.26538 N/A
1:34 am 01:34 Cloudy 70 21 70 21 100 100 Calm 30.18 1022 10 16.0934 N/A
1:54 am 01:54 Cloudy 70 21 70 21 100 100 Calm 30.18 1022 10 16.0934 N/A
2:15 am 02:15 Cloudy 70 21 70 21 100 100 Calm 30.18 1022 10 16.0934 N/A
2:34 am 02:34 Cloudy 70 21 70 21 100 100 Calm 30.15 1021 7 11.26538 N/A
2:54 am 02:54 Cloudy 70 21 70 21 100 100 S 3 6 30.15 1021 7 11.26538 N/A
3:15 am 03:15 Cloudy 70 21 70 21 100 100 S 3 6 30.15 1021 7 11.26538 N/A
3:35 am 03:35 Cloudy 70 21 70 21 100 100 S 3 6 30.15 1021 7 11.26538 N/A
3:54 am 03:54 Cloudy 70 21 70 21 100 100 Calm 30.15 1021 7 11.26538 N/A
4:15 am 04:15 Cloudy 70 21 70 21 100 100 SSW 3 6 30.15 1021 7 11.26538 N/A
4:34 am 04:34 Cloudy 70 21 68 20 94 94 Calm 30.15 1021 7 11.26538 N/A
4:54 am 04:54 Mostly Cloudy 68 20 68 20 100 100 Calm 30.15 1021 5 8.0467 N/A
5:15 am 05:15 Mostly Cloudy 68 20 68 20 100 100 Calm 30.15 1021 4 6.43736 N/A
5:34 am 05:34 Cloudy 68 20 68 20 100 100 Calm 30.15 1021 5 8.0467 N/A
5:54 am 05:54 Cloudy 70 21 68 20 94 94 Calm 30.15 1021 5 8.0467 N/A
6:15 am 06:15 Cloudy 70 21 68 20 94 94 Calm 30.12 1020 5 8.0467 N/A
6:34 am 06:34 Cloudy 70 21 68 20 94 94 Calm 30.12 1020 4 6.43736 N/A
6:54 am 06:54 Cloudy 70 21 68 20 94 94 Calm 30.12 1020 4 6.43736 N/A
7:15 am 07:15 Cloudy 70 21 68 20 94 94 S 3 6 30.15 1021 5 8.0467 N/A
7:34 am 07:34 Cloudy 70 21 68 20 94 94 Calm 30.15 1021 4 6.43736 N/A
7:54 am 07:54 Cloudy 70 21 68 20 94 94 Calm 30.15 1021 4 6.43736 N/A
8:14 am 08:14 Cloudy 70 21 70 21 100 100 Calm 30.15 1021 5 8.0467 N/A
8:34 am 08:34 Cloudy 70 21 68 20 94 94 Calm 30.15 1021 5 8.0467 N/A
8:55 am 08:55 Cloudy 70 21 68 20 94 94 Calm 30.15 1021 7 11.26538 N/A
9:14 am 09:14 Cloudy 70 21 68 20 94 94 Calm 30.15 1021 7 11.26538 N/A
9:34 am 09:34 Cloudy 72 22 68 20 88 88 SW 3 6 30.18 1022 7 11.26538 N/A
9:55 am 09:55 Cloudy 72 22 68 20 88 88 Calm 30.15 1021 7 11.26538 N/A
10:14 am 10:14 Cloudy 72 22 68 20 88 88 NW 5 7 30.15 1021 5 8.0467 N/A
10:34 am 10:34 Cloudy 72 22 68 20 88 88 NW 5 7 30.18 1022 7 11.26538 N/A
10:55 am 10:55 Cloudy 72 22 68 20 88 88 WNW 5 7 30.18 1022 7 11.26538 N/A
11:14 am 11:14 Cloudy 72 22 68 20 88 88 NW 5 7 30.18 1022 7 11.26538 N/A
11:34 am 11:34 Cloudy 73 23 68 20 83 83 W 3 6 30.15 1021 7 11.26538 N/A
11:55 am 11:55 Cloudy 73 23 68 20 83 83 Calm 30.15 1021 7 11.26538 N/A
12:14 pm 12:14 Cloudy 73 23 68 20 83 83 Calm 30.15 1021 7 11.26538 N/A
12:34 pm 12:34 Cloudy 73 23 68 20 83 83 Calm 30.12 1020 10 16.0934 N/A
12:55 pm 12:55 Cloudy 75 24 70 21 83 83 Calm 30.12 1020 10 16.0934 N/A
1:14 pm 13:14 Cloudy 77 25 70 21 79 79 SW 3 6 30.12 1020 10 16.0934 N/A
1:34 pm 13:34 Cloudy 77 25 70 21 79 79 Calm 30.12 1020 10 16.0934 N/A
1:55 pm 13:55 Partly Cloudy 79 26 70 21 74 74 Calm 30.09 1019 10 16.0934 N/A
2:14 pm 14:14 Partly Cloudy 81 27 70 21 70 70 Calm 30.09 1019 10 16.0934 N/A
2:34 pm 14:34 Mostly Cloudy 81 27 70 21 70 70 Calm 30.09 1019 10 16.0934 N/A
2:55 pm 14:55 Partly Cloudy 82 28 70 21 66 66 W 3 6 30.06 1018 10 16.0934 N/A
3:14 pm 15:14 Partly Cloudy 82 28 70 21 66 66 WSW 6 9 30.06 1018 10 16.0934 N/A
3:34 pm 15:34 Partly Cloudy 82 28 70 21 66 66 Calm 30.06 1018 10 16.0934 N/A
3:55 pm 15:55 Mostly Cloudy 82 28 68 20 62 62 Calm 30.06 1018 10 16.0934 N/A
4:14 pm 16:14 Mostly Cloudy 82 28 68 20 62 62 WNW 3 6 30.06 1018 10 16.0934 N/A
4:34 pm 16:34 Partly Cloudy 82 28 70 21 66 66 WSW 3 6 30.06 1018 10 16.0934 N/A
4:55 pm 16:55 Partly Cloudy 81 27 70 21 70 70 Calm 30.06 1018 10 16.0934 N/A
5:14 pm 17:14 Mostly Cloudy 81 27 70 21 70 70 WNW 5 7 30.06 1018 10 16.0934 N/A
5:34 pm 17:34 Mostly Cloudy 81 27 70 21 70 70 WNW 7 11 30.06 1018 10 16.0934 N/A
5:55 pm 17:55 Partly Cloudy 81 27 70 21 70 70 W 5 7 30.06 1018 10 16.0934 N/A
6:14 pm 18:14 Mostly Cloudy 79 26 70 21 74 74 W 5 7 30.06 1018 10 16.0934 N/A
6:34 pm 18:34 Mostly Cloudy 79 26 72 22 79 79 SW 3 6 30.06 1018 10 16.0934 N/A
6:55 pm 18:55 Partly Cloudy 79 26 70 21 74 74 W 3 6 30.06 1018 10 16.0934 N/A
7:14 pm 19:14 Sunny 79 26 72 22 79 79 SW 3 6 30.06 1018 10 16.0934 N/A
7:34 pm 19:34 Sunny 77 25 70 21 79 79 SW 7 11 30.06 1018 10 16.0934 N/A
7:55 pm 19:55 Sunny 77 25 70 21 79 79 SW 6 9 30.06 1018 10 16.0934 N/A
8:14 pm 20:14 Sunny 77 25 70 21 79 79 SW 6 9 30.06 1018 10 16.0934 N/A
8:34 pm 20:34 Sunny 75 24 70 21 83 83 SW 8 13 30.06 1018 10 16.0934 N/A
8:55 pm 20:55 Clear 73 23 70 21 89 89 SW 6 9 30.06 1018 10 16.0934 N/A
9:14 pm 21:14 Clear 72 22 70 21 94 94 Calm 30.09 1019 10 16.0934 N/A
9:34 pm 21:34 Clear 72 22 70 21 94 94 Calm 30.09 1019 10 16.0934 N/A
9:55 pm 21:55 Clear 68 20 68 20 100 100 Calm 30.12 1020 10 16.0934 N/A
10:14 pm 22:14 Clear 70 21 68 20 94 94 SSW 3 6 30.12 1020 10 16.0934 N/A
10:34 pm 22:34 Clear 68 20 68 20 100 100 Calm 30.12 1020 10 16.0934 N/A
10:55 pm 22:55 Clear 70 21 68 20 94 94 Calm 30.12 1020 10 16.0934 N/A
11:14 pm 23:14 Clear 68 20 68 20 100 100 Calm 30.12 1020 7 11.26538 N/A
11:34 pm 23:34 Clear 68 20 66 19 94 94 Calm 30.12 1020 7 11.26538 N/A
11:55 pm 23:55 Clear 68 20 68 20 100 100 Calm 30.15 1021 7 11.26538 N/A

Powered by AerisWeather